This is the latest recevied weather packets stored in our database for station/object K7LER. If no packets are shown the sender has not sent any weather packets the latest 1 day(s).
| Time | Temp. | Humidity | Pressure | Rain* | Wind** | Luminosity | Snow |
|---|---|---|---|---|---|---|---|
| 1778026833 | 17.78° C | 69% | 1015.1 hPa | 0 mm | - | 366 W/m² | - |
| 1778026541 | 17.78° C | 69% | 1015.1 hPa | 0 mm | - | 343 W/m² | - |
| 1778026235 | 17.78° C | 70% | 1015.2 hPa | 0 mm | - | 336 W/m² | - |
| 1778025936 | 17.78° C | 69% | 1015.3 hPa | 0 mm | - | 357 W/m² | - |
| 1778025334 | 17.78° C | 70% | 1015.2 hPa | 0 mm | - | 425 W/m² | - |
| 1778025033 | 17.78° C | 69% | 1015.4 hPa | 0 mm | - | 454 W/m² | - |
| 1778024757 | 17.22° C | 71% | 1015.3 hPa | 0 mm | - | 503 W/m² | - |
| 1778024433 | 17.22° C | 70% | 1015.4 hPa | 0 mm | - | 531 W/m² | - |
| 1778022955 | 16.67° C | 72% | 1015.5 hPa | 0 mm | - | 687 W/m² | - |
| 1778022634 | 16.67° C | 73% | 1015.5 hPa | 0 mm | - | 536 W/m² | - |
| 1778021149 | 15.56° C | 75% | 1015.8 hPa | 0 mm | - | 290 W/m² | - |
| 1778019633 | 15.56° C | 77% | 1016.1 hPa | 0 mm | - | 271 W/m² | - |
| 1778019341 | 15.56° C | 76% | 1016 hPa | 0 mm | - | 278 W/m² | - |
| 1778019033 | 15.56° C | 76% | 1016 hPa | 0 mm | - | 265 W/m² | - |
| 1778016646 | 15° C | 78% | 1016.3 hPa | 0 mm | - | 218 W/m² | - |
| 1778016035 | 15° C | 78% | 1016.2 hPa | 0 mm | - | 230 W/m² | - |
| 1778015761 | 15° C | 78% | 1016.2 hPa | 0 mm | - | 236 W/m² | - |
| 1778015434 | 15° C | 78% | 1016.3 hPa | 0 mm | - | 216 W/m² | - |
| 1778014843 | 14.44° C | 78% | 1016.2 hPa | 0 mm | - | 246 W/m² | - |
| 1778014536 | 14.44° C | 78% | 1016.3 hPa | 0 mm | - | 221 W/m² | - |
* Rain latest hour (hover to see other rain measurements)
** Current wind speed in m/s (hover to see current wind gust speed)